Location: Béaulencourt
(50.0796°N, 2.8795°E)
Time: 20:49:21
(UTC+00:00)

NOAA 12 - Pass Details

Date: 20 January 2026
Orbit: 793 x 813 km, 98.6° (Epoch: 16 February)

Event Time Altitude Azimuth Distance (km) Brightness Sun altitude
Rises 05:48:49 0° 10° (N) 3,306 7.3 -17.0°
Reaches altitude 10° 05:51:14 10° 4° (N) 2,373 6.5 -16.6°
Maximum altitude 05:56:11 44° 294° (WNW) 1,088 4.3 -15.8°
Drops below altitude 10° 06:01:06 10° 223° (SW) 2,362 6.2 -15.0°
Sets 06:03:30 0° 217° (SW) 3,290 7.0 -14.7°
